| time (UTC) | temp C | wind direction | speed KPH | gust KPH | rain 1hr cm | rain 24hr cm | rain mn cm | humidity % | barometer mb |
| 20260508183704 | 17 | 210 | 6.4 | 0.0 | 0.00 | 0.00 | 0.00 | 72 | 1006.0 |
| 20260508173702 | 17 | 180 | 11.3 | 0.0 | 0.00 | 0.00 | 0.00 | 72 | 1007.0 |
| 20260508163702 | 17 | 180 | 6.4 | 0.0 | 0.00 | 0.00 | 0.00 | 72 | 1007.0 |
| 20260508153702 | 21 | 190 | 6.4 | 0.0 | 0.00 | 0.00 | 0.00 | 52 | 1008.0 |
| 20260508143702 | 21 | 150 | 11.3 | 0.0 | 0.00 | 0.00 | 0.00 | 52 | 1008.0 |
| 20260508133702 | 21 | 140 | 11.3 | 0.0 | 0.00 | 0.00 | 0.00 | 52 | 1008.0 |
| 20260508123702 | 21 | 130 | 20.9 | 0.0 | 0.00 | 0.00 | 0.00 | 52 | 1008.0 |
| 20260508113702 | 21 | 350 | 14.5 | 0.0 | 0.00 | 0.00 | 0.00 | 52 | 1008.0 |
| 20260508103702 | 21 | 20 | 11.3 | 0.0 | 0.00 | 0.00 | 0.00 | 52 | 1009.0 |
| 20260508093701 | 21 | 10 | 14.5 | 0.0 | 0.00 | 0.00 | 0.00 | 52 | 1009.0 |
| 20260508083702 | 21 | 360 | 14.5 | 0.0 | 0.00 | 0.00 | 0.00 | 52 | 1010.0 |
| 20260508073702 | 17 | 360 | 14.5 | 0.0 | 0.00 | 0.00 | 0.00 | 63 | 1010.0 |
| 20260508063702 | 17 | 360 | 17.7 | 0.0 | 0.00 | 0.00 | 0.00 | 63 | 1010.0 |
| 20260508053702 | 16 | 10 | 11.3 | 0.0 | 0.00 | 0.00 | 0.00 | 72 | 1011.0 |
| 20260508043701 | 16 | 360 | 11.3 | 0.0 | 0.00 | 0.00 | 0.00 | 72 | 1011.0 |
| 20260508033702 | 13 | 350 | 14.5 | 0.0 | 0.00 | 0.00 | 0.00 | 54 | 1011.0 |
| 20260508023701 | 13 | 360 | 6.4 | 0.0 | 0.00 | 0.00 | 0.00 | 54 | 1011.0 |
| 20260508013701 | 13 | 340 | 11.3 | 0.0 | 0.00 | 0.00 | 0.00 | 54 | 1011.0 |
| 20260508003702 | 13 | 330 | 6.4 | 0.0 | 0.00 | 0.00 | 0.00 | 54 | 1011.0 |
| 20260507233702 | 13 | 50 | 3.2 | 0.0 | 0.00 | 0.00 | 0.00 | 54 | 1010.0 |
| 20260507223702 | 13 | 160 | 3.2 | 0.0 | 0.00 | 0.00 | 0.00 | 54 | 1011.0 |
| 20260507213702 | 13 | 330 | 3.2 | 0.0 | 0.00 | 0.00 | 0.00 | 54 | 1011.0 |
| 20260507203702 | 13 | 0.0 | 0.0 | 0.00 | 0.00 | 0.00 | 54 | 1011.0 | |
| 20260507193702 | 13 | 340 | 14.5 | 0.0 | 0.00 | 0.00 | 0.00 | 54 | 1011.0 |